Вернуться в каталог

STARLINK-36848

АктивенСвязьVLEO
NORAD 67936·PAYLOAD·🇺🇸 United States

Запущен Feb 24, 2026 с Vandenberg Space Force Base

Loading…

Ближайшие Пролёты (ближайшие 24 часа)

TLE

СвежийSource: CelesTrak SupGP

Эпоха: Sep 15, 2026, 04:10 UTC

1 67936C 26037E   26258.17409722 -.00014839  00000+0 -53758-3 0  2589
2 67936  43.0004 200.8069 0000894 262.9989 250.2403 15.27580126    19

Отслеживайте STARLINK-36848 в реальном времени с AllMySat

Download on the App Store